Content
SEND FEEDBACK

Daily
Averages
Monthly
Summary
France

BORDEAUX, FRANCE


Home > Europe > France
Elevation: 200 feet     Latitude: 44 50N     Longitude: 000 42W

WEATHER
 
SELECT A DAY
Number of Records: 328,176;   Date Range: 7/1/96 - 10/19/14
 
SHARE

PRINT THIS DATA

[ ← Previous Day ]
WEATHER ALMANAC - MAY 10, 2013
[ Next Day → ]
[ °C ]   °F
Weather ElementAverageHighLow
Temperature53.6 °F62.6 °F (1:30 pm)44.6 °F (3:00 am)
Dewpoint41.9 °F46.4 °F (12:30 am)33.8 °F (2:30 pm)
Humidity67.6 %100 % (1:00 am)29 % (2:00 pm)
Barometer30.18 in30.22 in (2:00 pm)30.15 in (12:30 am)
Wind Speed7 mph13.8 mph (5:00 pm)
Weather ElementAverage
Visibility6.2 mi
Wind DirectionWSW (248.2 °)

Weather ElementTotal
Precipitation---
Heating Degree Days11.4 (Base 65)
Growing Degree Days3.6 (Base 50)
Averaged from 51 records on May 10, 2013
WEATHER CONDITIONS BREAKOUT
WIND DIRECTION BREAKOUT
WEATHER BY HOUR - MAY 10, 2013
[ °C ]   °F
Local TimeTemperatureDewpointHumidityBarometerVisibilityWind DirectionWind SpeedGust SpeedPrecipitationEventsConditions
12:30 AM48.2 °F46.4 °F93 %30.15 in6.2 miWSW (240°)5.8 mphFogFog
1:00 AM46.4 °F46.4 °F100 %30.15 in6.2 miSW (220°)4.6 mphPartly Cloudy
1:30 AM46.4 °F44.6 °F93 %30.15 in6.2 miSW (230°)4.6 mphScattered Clouds
2:00 AM47.0 °F46.0 °F94 %30.18 inWSW (240°)5.8 mphPartly Cloudy
2:00 AM48.2 °F46.4 °F93 %30.15 in6.2 miWSW (240°)5.8 mphMostly Cloudy
2:30 AM46.4 °F44.6 °F93 %30.15 in6.2 miSW (230°)5.8 mphPartly Cloudy
3:00 AM44.6 °F42.8 °F93 %30.15 in6.2 miSW (230°)4.6 mphMostly Cloudy
3:30 AM46.4 °F44.6 °F93 %30.15 in6.2 miSW (220°)5.8 mphMostly Cloudy
4:00 AM44.6 °F44.6 °F100 %30.15 in6.2 miSW (230°)4.6 mphMostly Cloudy
4:30 AM46.4 °F44.6 °F93 %30.15 in6.2 miWSW (240°)4.6 mphOvercast
5:00 AM46.4 °F44.6 °F93 %30.15 in6.2 miSW (230°)4.6 mphOvercast
5:30 AM46.4 °F42.8 °F87 %30.15 in6.2 miSW (220°)3.5 mph
6:00 AM44.6 °F42.8 °F93 %30.15 in6.2 miSW (220°)4.6 mphMist
6:30 AM44.6 °F42.8 °F93 %30.15 in6.2 miSW (230°)3.5 mphPartly Cloudy
7:00 AM44.6 °F42.8 °F93 %30.18 in6.2 miVariable2.3 mphFogPatches of Fog
7:30 AM44.6 °F42.8 °F93 %30.18 in6.2 miVariable3.5 mph
8:00 AM47.0 °F46.0 °F93 %30.21 inSSW (210°)3.5 mphPartly Cloudy
8:00 AM46.4 °F46.4 °F100 %30.18 in6.2 miSSW (210°)3.5 mph
8:30 AM48.2 °F46.4 °F93 %30.18 in6.2 miWSW (240°)3.5 mph
9:00 AM51.8 °F44.6 °F76 %30.21 in6.2 miWSW (250°)3.5 mph
9:30 AM55.4 °F44.6 °F67 %30.21 in6.2 miWest (260°)8.1 mph
10:00 AM57.2 °F44.6 °F63 %30.21 in6.2 miWest (270°)8.1 mph
10:30 AM57.2 °F42.8 °F59 %30.21 in6.2 miWSW (250°)8.1 mph
11:00 AM57.2 °F41.0 °F55 %30.21 in6.2 miWSW (240°)10.4 mphMostly Cloudy
11:30 AM57.2 °F39.2 °F51 %30.21 in6.2 miWest (280°)5.8 mphScattered Clouds
12:00 PM57.2 °F39.2 °F51 %30.21 in6.2 miWSW (250°)6.9 mphMostly Cloudy
12:30 PM59.0 °F37.4 °F45 %30.21 in6.2 miWSW (250°)6.9 mph
1:00 PM59.0 °F37.4 °F45 %30.21 in6.2 miWest (270°)5.8 mph
1:30 PM62.6 °F39.2 °F42 %30.21 in6.2 miWSW (250°)9.2 mph
2:00 PM60.0 °F36.0 °F29 %30.22 inWest (260°)6.9 mphPartly Cloudy
2:00 PM60.8 °F35.6 °F39 %30.21 in6.2 miWest (260°)6.9 mph
2:30 PM62.6 °F33.8 °F34 %30.18 in6.2 miWest (260°)9.2 mph
3:00 PM62.6 °F37.4 °F39 %30.18 in6.2 miWest (280°)9.2 mph
3:30 PM60.8 °F35.6 °F39 %30.18 in6.2 miWSW (250°)11.5 mph
4:00 PM60.8 °F39.2 °F45 %30.18 in6.2 miNNW (330°)11.5 mph
4:30 PM60.8 °F39.2 °F45 %30.18 in6.2 miWNW (300°)11.5 mph
5:00 PM60.8 °F41.0 °F48 %30.18 in6.2 miWNW (300°)13.8 mph
5:30 PM62.6 °F41.0 °F45 %30.18 in6.2 miNW (310°)12.7 mphPartly Cloudy
6:00 PM60.8 °F41.0 °F48 %30.18 in6.2 miWest (280°)12.7 mphMostly Cloudy
6:30 PM59.0 °F41.0 °F51 %30.18 in6.2 miWNW (290°)11.5 mphMostly Cloudy
7:00 PM60.8 °F42.8 °F52 %30.18 in6.2 miNW (310°)11.5 mphScattered Clouds
7:30 PM59.0 °F41.0 °F51 %30.18 in6.2 miWNW (290°)11.5 mphMostly Cloudy
8:00 PM58.0 °F42.0 °F43 %30.19 inWNW (300°)10.4 mphPartly Cloudy
8:00 PM59.0 °F41.0 °F51 %30.18 in6.2 miWNW (300°)10.4 mphPartly Cloudy
8:30 PM57.2 °F41.0 °F55 %30.18 in6.2 miWNW (290°)9.2 mphPartly Cloudy
9:00 PM55.4 °F39.2 °F54 %30.18 in6.2 miWNW (300°)6.9 mph
9:30 PM53.6 °F41.0 °F62 %30.18 in6.2 miWNW (290°)4.6 mph
10:00 PM53.6 °F41.0 °F62 %30.18 in6.2 miWest (270°)3.5 mph
10:30 PM51.8 °F41.0 °F67 %30.21 in6.2 miWSW (250°)3.5 mph
11:00 PM50.0 °F42.8 °F76 %30.21 in6.2 miWSW (250°)3.5 mph
11:30 PM50.0 °F42.8 °F76 %30.21 in6.2 miWSW (240°)5.8 mph
Hourly data recorded from LFBD, located miles away from Bordeaux, France







STORIES FROM OUR PARTNERS